Regional Weather Roundup
Issued by NWS Nashville, TN

Home | Current Version | Previous Version | Text Only | Print | Product List | Glossary On
Versions: 1 2 3 4 5 6 7 8 9 10 11 12 13 14 15 16 17 18 19 20 21 22 23 24 25 26 27 28 29 30 31
000
ASUS44 KOHX 312110
RWROHX
MIDDLE TENNESSEE HOURLY WEATHER ROUNDUP
NATIONAL WEATHER SERVICE NASHVILLE TN
400 PM CDT WED AUG 31 2016

NOTE: "FAIR" INDICATES FEW OR NO CLOUDS BELOW 12,000 FEET WITH
NO SIGNIFICANT WEATHER AND/OR OBSTRUCTIONS TO VISIBILITY.

* THESE REPORTS ARE NOT UNDER NWS QUALITY CONTROL AND MAY NOT
  REPORT WEATHER SUCH AS PRECIPITATION AND FOG.


TNZ005>011-023>034-057-059-062>066-078-080-312200
...NORTHERN MIDDLE TENNESSEE...

CITY           SKY/WX    TMP DP  RH WIND       PRES   REMARKS
CLARKSVILLE    SUNNY     88  71  57 NW14      29.94F HX  94
CROSSVILLE     HVY RAIN  76  71  85 SE7       30.00F
GALLATIN       SUNNY     91  68  46 NW6G13    29.94F HX  95
DICKSON        MOSUNNY   88  72  58 NE6       29.94F HX  94
LEBANON        SUNNY     90  70  51 N9        29.91F HX  95
NASHVILLE      MOSUNNY   91  68  46 N9        29.92F HX  95
WEST NASHVILLE SUNNY     91  70  49 NW7       29.91F HX  97
PORTLAND       MOSUNNY   91  70  49 VRB7      29.93F HX  97
SPARTA         SUNNY     91  72  52 NW6       29.93F HX  98
SPRINGFIELD    PTSUNNY   84  70  61 N13       29.93S
$$
TNZ056-058-060-061-075>077-079-093>097-312200
...SOUTHERN MIDDLE TENNESSEE...

CITY           SKY/WX    TMP DP  RH WIND       PRES   REMARKS
COLUMBIA       SUNNY     90  75  62 NW6       29.92S HX 100
FAYETTEVILLE   SUNNY     90  68  48 N6G12     29.93F HX  93
LEWISBURG      PTSUNNY   91  73  55 N5        29.92F HX  99
MCMINNVILLE    PTSUNNY   91  73  55 VRB6      29.93F HX 100
MURFREESBORO   PTCLDY    92  67  43 VRB5      29.90F HX  95
SHELBYVILLE    MOSUNNY   93  70  46 E3        29.93F HX  99
TULLAHOMA      MOSUNNY   91  64  40 W5        29.94F HX  93
WINCHESTER     SUNNY     91  70  49 VRB5      29.93F HX  97
$$


...KEY TO REMARKS...
VSB - VISIBILITY IN MILES
WCI - WIND CHILL INDEX
HX  - HEAT INDEX





USA.gov is the U.S. government's official web portal to all federal, state and local government web resources and services.